Location: Lancaster
(34.6980°N, 118.1360°W)
Time: 03:16:01
(UTC-08:00)

OTV 5 (USA 277) - Pass Details

Date: 17 November 2017
Orbit: 404 x 417 km, 43.0° (Epoch: 07 September)

Event Time Altitude Azimuth Distance (km) Brightness Sun altitude
Exits shadow 05:58:37 - 306° (NW) 1,628 ? -6.6°
Reaches altitude 10° 05:59:03 10° 307° (NW) 1,455 ? -6.5°
Maximum altitude 06:02:14 47° 23° (NNE) 543 ? -5.9°
Drops below altitude 10° 06:05:25 10° 99° (E) 1,451 ? -5.3°
Sets 06:07:33 0° 105° (ESE) 2,308 ? -4.9°
